,,Stat6,,Stat2,,Stat8,,Stat9,,Stat10,,Wind1,,Wind1,
time,status,PA1M_AVG,status,PR1M_SUM,status,RH1M_AVG,status,SR1M_AVG,status,TA1M_AVG,status,W1dAve1m,status,W1sAve1m,
2008-08-18, 00:00:00,VALID,918.272,VALID,0,VALID,100,VALID,-0.0509425,VALID,20.3775,VALID,100,VALID,0,
2008-08-18, 00:01:00,VALID,918.273,VALID,0,VALID,100,VALID,-0.0339617,VALID,20.3613,VALID,100,VALID,0,
2008-08-18, 00:02:01,VALID,918.27,VALID,0,VALID,100,VALID,-0.0509425,VALID,20.3548,VALID,100,VALID,0,
2008-08-18, 00:03:00,VALID,918.282,VALID,0,VALID,100,VALID,-0.101885,VALID,20.3626,VALID,100,VALID,0,
2008-08-18, 00:04:00,VALID,918.258,VALID,0,VALID,100,VALID,-0.0849042,VALID,20.3388,VALID,100,VALID,0,
2008-08-18, 00:05:01,VALID,918.262,VALID,0,VALID,100,VALID,-0.101885,VALID,20.3358,VALID,100,VALID,0,
2008-08-18, 00:06:01,VALID,918.256,VALID,0,VALID,100,VALID,-0.101885,VALID,20.3198,VALID,100,VALID,0,
2008-08-18, 00:07:00,VALID,918.243,VALID,0,VALID,100,VALID,-0.101885,VALID,20.2874,VALID,100,VALID,0,
2008-08-18, 00:08:01,VALID,918.252,VALID,0,VALID,100,VALID,-0.101885,VALID,20.235,VALID,100,VALID,0,
2008-08-18, 00:09:00,VALID,918.256,VALID,0,VALID,100,VALID,-0.0849042,VALID,20.2023,VALID,100,VALID,0,
2008-08-18, 00:10:01,VALID,918.246,VALID,0,VALID,100,VALID,-0.101885,VALID,20.1668,VALID,100,VALID,0,
2008-08-18, 00:11:01,VALID,918.24,VALID,0,VALID,100,VALID,-0.0679233,VALID,20.1374,VALID,96,VALID,0.159489,
2008-08-18, 00:12:01,VALID,918.231,VALID,0,VALID,100,VALID,-0.0679233,VALID,20.1111,VALID,93,VALID,0.352108,
2008-08-18, 00:13:01,VALID,918.214,VALID,0,VALID,100,VALID,-0.0849042,VALID,20.0952,VALID,89,VALID,0.489236,
2008-08-18, 00:14:01,VALID,918.214,VALID,0,VALID,100,VALID,-0.0849042,VALID,20.1059,VALID,83,VALID,0.627232,
2008-08-18, 00:15:01,VALID,918.208,VALID,0,VALID,100,VALID,-0.101885,VALID,20.0927,VALID,83,VALID,0.581076,
2008-08-18, 00:16:01,VALID,918.214,VALID,0,VALID,100,VALID,-0.0849042,VALID,20.076,VALID,83,VALID,0.471007,
2008-08-18, 00:17:01,VALID,918.217,VALID,0,VALID,100,VALID,-0.0509425,VALID,20.056,VALID,83,VALID,0.0090843,
2008-08-18, 00:18:01,VALID,918.233,VALID,0,VALID,100,VALID,-0.0509425,VALID,20.0497,VALID,83,VALID,0,
2008-08-18, 00:19:00,VALID,918.241,VALID,0,VALID,100,VALID,-0.0849042,VALID,20.043,VALID,83,VALID,0,
2008-08-18, 00:20:00,VALID,918.258,VALID,0,VALID,100,VALID,-0.0679233,VALID,20.0403,VALID,83,VALID,0,
2008-08-18, 00:21:00,VALID,918.241,VALID,0,VALID,100,VALID,-0.0849042,VALID,20.0238,VALID,83,VALID,0,
2008-08-18, 00:22:00,VALID,918.245,VALID,0,VALID,100,VALID,-0.0849042,VALID,20.014,VALID,83,VALID,0,
2008-08-18, 00:23:00,VALID,918.239,VALID,0,VALID,100,VALID,0.0339617,VALID,20.0125,VALID,83,VALID,0,
2008-08-18, 00:24:00,VALID,918.23,VALID,0,VALID,100,VALID,0.0169808,VALID,20.0093,VALID,83,VALID,0,
2008-08-18, 00:25:00,VALID,918.208,VALID,0,VALID,100,VALID,0.0339617,VALID,20.0093,VALID,83,VALID,0,
2008-08-18, 00:26:00,VALID,918.199,VALID,0,VALID,100,VALID,0,VALID,19.9966,VALID,83,VALID,0,
2008-08-18, 00:27:00,VALID,918.189,VALID,0,VALID,100,VALID,0,VALID,19.9124,VALID,83,VALID,0,
2008-08-18, 00:28:00,VALID,918.181,VALID,0,VALID,100,VALID,0.0169808,VALID,19.8538,VALID,83,VALID,0.321646,
2008-08-18, 00:29:00,VALID,918.176,VALID,0,VALID,100,VALID,0,VALID,19.8179,VALID,83,VALID,0.767228,
2008-08-18, 00:30:00,VALID,918.17,VALID,0,VALID,100,VALID,0.0169808,VALID,19.7984,VALID,83,VALID,0.81267,
2008-08-18, 00:31:00,VALID,918.159,VALID,0,VALID,100,VALID,0.0169808,VALID,19.8016,VALID,83,VALID,0.688939,
2008-08-18, 00:32:00,VALID,918.149,VALID,0,VALID,100,VALID,0,VALID,19.8348,VALID,83,VALID,0.449963,
2008-08-18, 00:33:00,VALID,918.152,VALID,0,VALID,100,VALID,0.0169808,VALID,19.8276,VALID,83,VALID,0.100675,
2008-08-18, 00:34:00,VALID,918.157,VALID,0,VALID,100,VALID,0,VALID,19.8406,VALID,83,VALID,0,
2008-08-18, 00:35:00,VALID,918.167,VALID,0,VALID,100,VALID,0.0339617,VALID,19.8635,VALID,83,VALID,0,
2008-08-18, 00:36:00,VALID,918.185,VALID,0,VALID,100,VALID,0.0339617,VALID,19.9025,VALID,83,VALID,0.025343,
2008-08-18, 00:37:00,VALID,918.198,VALID,0,VALID,100,VALID,0.0339617,VALID,19.9476,VALID,83,VALID,0.0293403,
2008-08-18, 00:38:00,VALID,918.196,VALID,0,VALID,100,VALID,0.0169808,VALID,20.003,VALID,83,VALID,0,
2008-08-18, 00:39:00,VALID,918.199,VALID,0,VALID,100,VALID,0,VALID,20.042,VALID,83,VALID,0,
2008-08-18, 00:40:00,VALID,918.198,VALID,0,VALID,100,VALID,0,VALID,20.0644,VALID,83,VALID,0,
2008-08-18, 00:41:00,VALID,918.178,VALID,0,VALID,100,VALID,0,VALID,20.1101,VALID,83,VALID,0,
2008-08-18, 00:42:00,VALID,918.185,VALID,0,VALID,100,VALID,0.0679233,VALID,20.1228,VALID,83,VALID,0,
2008-08-18, 00:43:00,VALID,918.189,VALID,0,VALID,100,VALID,0.0509425,VALID,20.1031,VALID,83,VALID,0,
2008-08-18, 00:44:00,VALID,918.169,VALID,0,VALID,100,VALID,0.0679233,VALID,20.0777,VALID,83,VALID,0,
2008-08-18, 00:45:00,VALID,918.169,VALID,0,VALID,100,VALID,0.0509425,VALID,20.0515,VALID,83,VALID,0,
2008-08-18, 00:46:00,VALID,918.169,VALID,0,VALID,100,VALID,0.0169808,VALID,20.0385,VALID,83,VALID,0,
2008-08-18, 00:47:00,VALID,918.158,VALID,0,VALID,100,VALID,0,VALID,20.0387,VALID,83,VALID,0,
2008-08-18, 00:48:00,VALID,918.171,VALID,0,VALID,100,VALID,0,VALID,20.0223,VALID,83,VALID,0,
2008-08-18, 00:49:00,VALID,918.172,VALID,0,VALID,100,VALID,0,VALID,20.0158,VALID,83,VALID,0,
2008-08-18, 00:50:00,VALID,918.182,VALID,0,VALID,100,VALID,-0.0339617,VALID,20.0233,VALID,83,VALID,0,
2008-08-18, 00:51:00,VALID,918.185,VALID,0,VALID,100,VALID,-0.0679233,VALID,20.024,VALID,83,VALID,0,
2008-08-18, 00:52:00,VALID,918.173,VALID,0,VALID,100,VALID,-0.0849042,VALID,20.021,VALID,83,VALID,0,
2008-08-18, 00:53:00,VALID,918.177,VALID,0,VALID,100,VALID,-0.0679233,VALID,19.9948,VALID,83,VALID,0,
2008-08-18, 00:54:00,VALID,918.158,VALID,0,VALID,100,VALID,-0.101885,VALID,19.9589,VALID,83,VALID,0,
2008-08-18, 00:55:00,VALID,918.138,VALID,0,VALID,100,VALID,-0.0679233,VALID,19.9429,VALID,83,VALID,0,
2008-08-18, 00:56:00,VALID,918.129,VALID,0,VALID,100,VALID,-0.101885,VALID,19.9199,VALID,83,VALID,0,
2008-08-18, 00:57:00,VALID,918.096,VALID,0,VALID,100,VALID,-0.101885,VALID,19.9232,VALID,83,VALID,0,
2008-08-18, 00:58:00,VALID,918.086,VALID,0,VALID,100,VALID,-0.0849042,VALID,19.9105,VALID,83,VALID,0.0546875,
2008-08-18, 00:59:00,VALID,918.069,VALID,0,VALID,100,VALID,-0.0849042,VALID,19.8972,VALID,85,VALID,0.172066,
2008-08-18, 01:00:00,VALID,918.037,VALID,0,VALID,100,VALID,-0.0849042,VALID,19.8843,VALID,88,VALID,0,
2008-08-18, 01:01:00,VALID,918.031,VALID,0,VALID,100,VALID,-0.0849042,VALID,19.8815,VALID,88,VALID,0,
2008-08-18, 01:02:00,VALID,918.008,VALID,0,VALID,100,VALID,-0.0509425,VALID,19.875,VALID,87,VALID,0,
2008-08-18, 01:03:00,VALID,917.992,VALID,0,VALID,100,VALID,-0.0849042,VALID,19.8615,VALID,84,VALID,0,
2008-08-18, 01:04:00,VALID,917.981,VALID,0,VALID,100,VALID,-0.0339617,VALID,19.8648,VALID,83,VALID,0,
2008-08-18, 01:05:00,VALID,917.954,VALID,0,VALID,100,VALID,-0.0509425,VALID,19.8578,VALID,83,VALID,0,
2008-08-18, 01:06:00,VALID,917.936,VALID,0,VALID,100,VALID,-0.0679233,VALID,19.8516,VALID,83,VALID,0,
2008-08-18, 01:07:00,VALID,917.913,VALID,0,VALID,100,VALID,-0.0679233,VALID,19.8416,VALID,83,VALID,0,
2008-08-18, 01:08:00,VALID,917.894,VALID,0,VALID,100,VALID,-0.0339617,VALID,19.8151,VALID,81,VALID,0,
2008-08-18, 01:09:00,VALID,917.869,VALID,0,VALID,100,VALID,-0.0679233,VALID,19.8383,VALID,76,VALID,0.556445,
2008-08-18, 01:10:00,VALID,917.822,VALID,0,VALID,100,VALID,-0.0849042,VALID,19.8615,VALID,75,VALID,0.85902,
2008-08-18, 01:11:00,VALID,917.783,VALID,0,VALID,100,VALID,-0.0509425,VALID,19.871,VALID,76,VALID,0.748728,
2008-08-18, 01:12:00,VALID,917.73,VALID,0,VALID,100,VALID,-0.101885,VALID,19.8513,VALID,81,VALID,0.729725,
2008-08-18, 01:13:00,VALID,917.699,VALID,0,VALID,100,VALID,-0.0339617,VALID,19.8386,VALID,81,VALID,0.825945,
2008-08-18, 01:14:00,VALID,917.68,VALID,0,VALID,100,VALID,-0.0509425,VALID,19.8024,VALID,81,VALID,0.101199,
2008-08-18, 01:15:00,VALID,917.64,VALID,0,VALID,100,VALID,-0.0849042,VALID,19.7834,VALID,78,VALID,0,
2008-08-18, 01:16:00,VALID,917.632,VALID,0,VALID,100,VALID,-0.0679233,VALID,19.7605,VALID,78,VALID,0,
2008-08-18, 01:17:00,VALID,917.61,VALID,0,VALID,100,VALID,-0.101885,VALID,19.7739,VALID,67,VALID,0.733507,
2008-08-18, 01:18:00,VALID,917.595,VALID,0,VALID,100,VALID,-0.101885,VALID,19.761,VALID,68,VALID,0.533026,
2008-08-18, 01:19:00,VALID,917.61,VALID,0,VALID,100,VALID,-0.101885,VALID,19.7283,VALID,68,VALID,0.4109,
2008-08-18, 01:20:00,VALID,917.604,VALID,0,VALID,100,VALID,-0.101885,VALID,19.709,VALID,67,VALID,0,
2008-08-18, 01:21:00,VALID,917.615,VALID,0,VALID,100,VALID,-0.118866,VALID,19.6993,VALID,67,VALID,0,
2008-08-18, 01:22:00,VALID,917.619,VALID,0,VALID,100,VALID,-0.101885,VALID,19.6823,VALID,67,VALID,0,
2008-08-18, 01:23:00,VALID,917.611,VALID,0,VALID,100,VALID,-0.0849042,VALID,19.6701,VALID,90,VALID,0,
2008-08-18, 01:24:00,VALID,917.603,VALID,0,VALID,100,VALID,-0.0849042,VALID,19.6604,VALID,130,VALID,0.171494,
2008-08-18, 01:25:00,VALID,917.591,VALID,0,VALID,100,VALID,-0.135847,VALID,19.6309,VALID,160,VALID,0.495998,
2008-08-18, 01:26:00,VALID,917.605,VALID,0,VALID,100,VALID,-0.0339617,VALID,19.6047,VALID,161,VALID,0.0525073,
2008-08-18, 01:27:00,VALID,917.607,VALID,0,VALID,100,VALID,-0.0679233,VALID,19.5955,VALID,161,VALID,0,
2008-08-18, 01:28:00,VALID,917.62,VALID,0,VALID,100,VALID,-0.101885,VALID,19.576,VALID,161,VALID,0,
2008-08-18, 01:29:00,VALID,917.617,VALID,0,VALID,100,VALID,-0.0509425,VALID,19.5493,VALID,161,VALID,0,
2008-08-18, 01:30:00,VALID,917.604,VALID,0,VALID,100,VALID,-0.0509425,VALID,19.5303,VALID,162,VALID,0,
2008-08-18, 01:31:00,VALID,917.598,VALID,0,VALID,100,VALID,-0.0509425,VALID,19.5174,VALID,162,VALID,0,
2008-08-18, 01:32:00,VALID,917.592,VALID,0,VALID,100,VALID,-0.101885,VALID,19.5236,VALID,162,VALID,0,
2008-08-18, 01:33:00,VALID,917.602,VALID,0,VALID,100,VALID,-0.0849042,VALID,19.5144,VALID,115,VALID,0,
2008-08-18, 01:34:00,VALID,917.577,VALID,0,VALID,100,VALID,-0.101885,VALID,19.4752,VALID,87,VALID,0,
2008-08-18, 01:35:00,VALID,917.559,VALID,0,VALID,100,VALID,-0.0849042,VALID,19.452,VALID,87,VALID,0,
2008-08-18, 01:36:00,VALID,917.551,VALID,0,VALID,100,VALID,-0.0679233,VALID,19.4622,VALID,87,VALID,0,
2008-08-18, 01:37:00,VALID,917.554,VALID,0,VALID,100,VALID,-0.0679233,VALID,19.4784,VALID,87,VALID,0,
2008-08-18, 01:38:00,VALID,917.554,VALID,0,VALID,100,VALID,-0.0509425,VALID,19.4712,VALID,87,VALID,0,
2008-08-18, 01:39:00,VALID,917.542,VALID,0,VALID,100,VALID,-0.0509425,VALID,19.4914,VALID,87,VALID,0,
2008-08-18, 01:40:00,VALID,917.542,VALID,0,VALID,100,VALID,-0.101885,VALID,19.5074,VALID,87,VALID,0,
2008-08-18, 01:41:00,VALID,917.533,VALID,0,VALID,100,VALID,-0.0849042,VALID,19.5139,VALID,87,VALID,0,
2008-08-18, 01:42:00,VALID,917.534,VALID,0,VALID,100,VALID,-0.118866,VALID,19.5146,VALID,87,VALID,0,
2008-08-18, 01:43:00,VALID,917.543,VALID,0,VALID,100,VALID,-0.0849042,VALID,19.5046,VALID,87,VALID,0,
2008-08-18, 01:44:00,VALID,917.536,VALID,0,VALID,100,VALID,-0.101885,VALID,19.4852,VALID,129,VALID,0,
2008-08-18, 01:45:00,VALID,917.532,VALID,0,VALID,100,VALID,-0.101885,VALID,19.4455,VALID,166,VALID,0,
2008-08-18, 01:46:00,VALID,917.504,VALID,0,VALID,100,VALID,-0.0509425,VALID,19.4385,VALID,166,VALID,0,
2008-08-18, 01:47:00,VALID,917.496,VALID,0,VALID,100,VALID,-0.0509425,VALID,19.4003,VALID,137,VALID,0.110491,
2008-08-18, 01:48:00,VALID,917.465,VALID,0,VALID,100,VALID,-0.0679233,VALID,19.3352,VALID,125,VALID,0,
2008-08-18, 01:49:00,VALID,917.436,VALID,0,VALID,100,VALID,-0.0849042,VALID,19.3676,VALID,136,VALID,0.120916,
2008-08-18, 01:50:00,VALID,917.421,VALID,0,VALID,100,VALID,-0.0679233,VALID,19.3998,VALID,128,VALID,0,
2008-08-18, 01:51:00,VALID,917.413,VALID,0,VALID,100,VALID,-0.0509425,VALID,19.4161,VALID,128,VALID,0,
2008-08-18, 01:52:00,VALID,917.42,VALID,0,VALID,100,VALID,-0.0849042,VALID,19.4255,VALID,128,VALID,0,
2008-08-18, 01:53:00,VALID,917.42,VALID,0,VALID,100,VALID,-0.0679233,VALID,19.4126,VALID,127,VALID,0,
2008-08-18, 01:54:00,VALID,917.402,VALID,0,VALID,100,VALID,-0.0849042,VALID,19.3097,VALID,115,VALID,0,
2008-08-18, 01:55:00,VALID,917.397,VALID,0,VALID,100,VALID,-0.0509425,VALID,19.2638,VALID,112,VALID,0,
2008-08-18, 01:56:00,VALID,917.389,VALID,0,VALID,100,VALID,-0.0679233,VALID,19.2808,VALID,112,VALID,0,
2008-08-18, 01:57:00,VALID,917.375,VALID,0,VALID,100,VALID,-0.0679233,VALID,19.2963,VALID,112,VALID,0,
2008-08-18, 01:58:00,VALID,917.371,VALID,0,VALID,100,VALID,-0.0679233,VALID,19.3933,VALID,112,VALID,0,
2008-08-18, 01:59:00,VALID,917.357,VALID,0,VALID,100,VALID,-0.0169808,VALID,19.4555,VALID,112,VALID,0,
2008-08-18, 02:00:00,VALID,917.34,VALID,0,VALID,100,VALID,-0.0339617,VALID,19.4358,VALID,112,VALID,0,
2008-08-18, 02:01:00,VALID,917.338,VALID,0,VALID,100,VALID,-0.0849042,VALID,19.3996,VALID,112,VALID,0,
2008-08-18, 02:02:00,VALID,917.299,VALID,0,VALID,100,VALID,-0.0509425,VALID,19.3841,VALID,112,VALID,0,
2008-08-18, 02:03:00,VALID,917.293,VALID,0,VALID,100,VALID,-0.0339617,VALID,19.3572,VALID,112,VALID,0,
2008-08-18, 02:04:00,VALID,917.265,VALID,0,VALID,100,VALID,0,VALID,19.3444,VALID,112,VALID,0,
2008-08-18, 02:05:00,VALID,917.248,VALID,0,VALID,100,VALID,-0.0849042,VALID,19.3292,VALID,112,VALID,0,
2008-08-18, 02:06:00,VALID,917.245,VALID,0,VALID,100,VALID,-0.0509425,VALID,19.3132,VALID,112,VALID,0,
2008-08-18, 02:07:00,VALID,917.239,VALID,0,VALID,100,VALID,-0.101885,VALID,19.2972,VALID,112,VALID,0,
2008-08-18, 02:08:00,VALID,917.237,VALID,0,VALID,100,VALID,-0.118866,VALID,19.3661,VALID,112,VALID,0,
2008-08-18, 02:09:00,VALID,917.234,VALID,0,VALID,100,VALID,-0.0849042,VALID,19.3397,VALID,112,VALID,0,
2008-08-18, 02:10:00,VALID,917.227,VALID,0,VALID,100,VALID,-0.118866,VALID,19.3751,VALID,112,VALID,0,
2008-08-18, 02:11:00,VALID,917.208,VALID,0,VALID,100,VALID,-0.0849042,VALID,19.4335,VALID,112,VALID,0,
2008-08-18, 02:12:00,VALID,917.204,VALID,0,VALID,100,VALID,-0.118866,VALID,19.427,VALID,112,VALID,0,
2008-08-18, 02:13:00,VALID,917.204,VALID,0,VALID,100,VALID,-0.101885,VALID,19.4368,VALID,112,VALID,0,
2008-08-18, 02:14:00,VALID,917.189,VALID,0,VALID,100,VALID,-0.101885,VALID,19.4432,VALID,112,VALID,0,
2008-08-18, 02:15:00,VALID,917.179,VALID,0,VALID,100,VALID,-0.118866,VALID,19.4627,VALID,112,VALID,0,
2008-08-18, 02:16:00,VALID,917.145,VALID,0,VALID,100,VALID,-0.118866,VALID,19.4664,VALID,139,VALID,0,
2008-08-18, 02:17:00,VALID,917.121,VALID,0,VALID,100,VALID,-0.101885,VALID,19.4495,VALID,142,VALID,0,
2008-08-18, 02:18:00,VALID,917.098,VALID,0,VALID,100,VALID,-0.101885,VALID,19.4562,VALID,142,VALID,0,
2008-08-18, 02:19:00,VALID,917.075,VALID,0,VALID,100,VALID,-0.101885,VALID,19.4465,VALID,142,VALID,0,
2008-08-18, 02:20:00,VALID,917.039,VALID,0,VALID,100,VALID,-0.0679233,VALID,19.4263,VALID,164,VALID,0,
2008-08-18, 02:21:00,VALID,917.033,VALID,0,VALID,100,VALID,-0.0169808,VALID,19.4223,VALID,175,VALID,0,
2008-08-18, 02:22:00,VALID,917.011,VALID,0,VALID,100,VALID,0,VALID,19.4126,VALID,175,VALID,0,
2008-08-18, 02:23:00,VALID,916.997,VALID,0,VALID,100,VALID,-0.0169808,VALID,19.3869,VALID,175,VALID,0,
2008-08-18, 02:24:00,VALID,916.973,VALID,0,VALID,100,VALID,-0.0339617,VALID,19.3701,VALID,183,VALID,0,
2008-08-18, 02:25:00,VALID,916.962,VALID,0,VALID,100,VALID,-0.0509425,VALID,19.3869,VALID,196,VALID,0,
2008-08-18, 02:26:00,VALID,916.968,VALID,0,VALID,100,VALID,-0.0339617,VALID,19.3901,VALID,196,VALID,0,
2008-08-18, 02:27:00,VALID,916.962,VALID,0,VALID,100,VALID,-0.0339617,VALID,19.3574,VALID,178,VALID,0.417333,
2008-08-18, 02:28:00,VALID,916.947,VALID,0,VALID,100,VALID,0,VALID,19.3479,VALID,173,VALID,0.337426,
2008-08-18, 02:29:00,VALID,916.943,VALID,0,VALID,100,VALID,-0.0169808,VALID,19.3477,VALID,190,VALID,0.536458,
2008-08-18, 02:30:00,VALID,916.955,VALID,0,VALID,100,VALID,0,VALID,19.3614,VALID,197,VALID,0.0181686,
2008-08-18, 02:31:00,VALID,916.959,VALID,0,VALID,100,VALID,-0.0339617,VALID,19.338,VALID,181,VALID,0.334028,
2008-08-18, 02:32:00,VALID,916.932,VALID,0,VALID,100,VALID,-0.0169808,VALID,19.3285,VALID,209,VALID,0.440874,
2008-08-18, 02:33:00,VALID,916.941,VALID,0,VALID,100,VALID,-0.0169808,VALID,19.3514,VALID,233,VALID,0.209535,
2008-08-18, 02:34:00,VALID,916.933,VALID,0,VALID,100,VALID,0,VALID,19.3706,VALID,188,VALID,0.285243,
2008-08-18, 02:35:00,VALID,916.933,VALID,0,VALID,100,VALID,-0.0169808,VALID,19.3836,VALID,167,VALID,0.759673,
2008-08-18, 02:36:00,VALID,916.922,VALID,0,VALID,100,VALID,-0.0169808,VALID,19.4133,VALID,180,VALID,0.659054,
2008-08-18, 02:37:00,VALID,916.902,VALID,0,VALID,100,VALID,-0.0509425,VALID,19.4427,VALID,187,VALID,0.374637,
2008-08-18, 02:38:00,VALID,916.912,VALID,0,VALID,100,VALID,-0.0679233,VALID,19.4323,VALID,197,VALID,0.795313,
2008-08-18, 02:39:00,VALID,916.886,VALID,0,VALID,100,VALID,-0.0339617,VALID,19.4355,VALID,190,VALID,0.093564,
2008-08-18, 02:40:00,VALID,916.865,VALID,0,VALID,100,VALID,-0.0339617,VALID,19.4323,VALID,202,VALID,0.115282,
2008-08-18, 02:41:00,VALID,916.82,VALID,0,VALID,100,VALID,0,VALID,19.445,VALID,176,VALID,1.2115,
2008-08-18, 02:42:00,VALID,916.792,VALID,0,VALID,100,VALID,-0.0339617,VALID,19.5009,VALID,185,VALID,0.44215,
2008-08-18, 02:43:00,VALID,916.765,VALID,0,VALID,100,VALID,0,VALID,19.5129,VALID,204,VALID,0.643483,
2008-08-18, 02:44:00,VALID,916.739,VALID,0,VALID,100,VALID,-0.0169808,VALID,19.5528,VALID,212,VALID,0.215376,
2008-08-18, 02:45:00,VALID,916.723,VALID,0,VALID,100,VALID,-0.0509425,VALID,19.5491,VALID,215,VALID,0.224276,
2008-08-18, 02:46:00,VALID,916.708,VALID,0,VALID,100,VALID,0,VALID,19.5266,VALID,237,VALID,0.709484,
2008-08-18, 02:47:00,VALID,916.7,VALID,0,VALID,100,VALID,-0.0169808,VALID,19.5264,VALID,240,VALID,0.515067,
2008-08-18, 02:48:00,VALID,916.696,VALID,0,VALID,100,VALID,-0.0169808,VALID,19.5326,VALID,244,VALID,0.467076,
2008-08-18, 02:49:00,VALID,916.674,VALID,0,VALID,100,VALID,-0.0169808,VALID,19.5269,VALID,219,VALID,0.670967,
2008-08-18, 02:50:00,VALID,916.662,VALID,0,VALID,100,VALID,-0.0849042,VALID,19.5166,VALID,237,VALID,0.674851,
2008-08-18, 02:51:00,VALID,916.657,VALID,0,VALID,100,VALID,-0.0509425,VALID,19.5296,VALID,250,VALID,0.0639205,
2008-08-18, 02:52:00,VALID,916.644,VALID,0,VALID,100,VALID,-0.0509425,VALID,19.5331,VALID,250,VALID,0,
2008-08-18, 02:53:00,VALID,916.657,VALID,0,VALID,100,VALID,-0.0169808,VALID,19.5363,VALID,245,VALID,0.103237,
2008-08-18, 02:54:00,VALID,916.651,VALID,0,VALID,100,VALID,-0.0339617,VALID,19.5393,VALID,226,VALID,0.133575,
2008-08-18, 02:55:00,VALID,916.638,VALID,0,VALID,100,VALID,-0.0339617,VALID,19.5393,VALID,208,VALID,0,
2008-08-18, 02:56:00,VALID,916.638,VALID,0,VALID,100,VALID,-0.0509425,VALID,19.5226,VALID,208,VALID,0,
2008-08-18, 02:57:00,VALID,916.628,VALID,0,VALID,100,VALID,-0.0169808,VALID,19.4934,VALID,208,VALID,0,
2008-08-18, 02:58:00,VALID,916.641,VALID,0,VALID,100,VALID,-0.0169808,VALID,19.4677,VALID,229,VALID,0.109747,
2008-08-18, 02:59:00,VALID,916.637,VALID,0,VALID,100,VALID,0,VALID,19.4513,VALID,253,VALID,0.203316,
2008-08-18, 03:00:00,VALID,916.63,VALID,0,VALID,100,VALID,0,VALID,19.4318,VALID,293,VALID,0.310014,
2008-08-18, 03:01:00,VALID,916.646,VALID,0,VALID,100,VALID,-0.0679233,VALID,19.4385,VALID,311,VALID,0.353561,
2008-08-18, 03:02:00,VALID,916.672,VALID,0,VALID,100,VALID,-0.0849042,VALID,19.4617,VALID,288,VALID,0.328125,
2008-08-18, 03:03:00,VALID,916.668,VALID,0,VALID,100,VALID,0,VALID,19.4777,VALID,263,VALID,0.878374,
2008-08-18, 03:04:00,VALID,916.683,VALID,0,VALID,100,VALID,0,VALID,19.458,VALID,274,VALID,0.140253,
2008-08-18, 03:05:00,VALID,916.663,VALID,0,VALID,100,VALID,-0.0679233,VALID,19.4517,VALID,268,VALID,0.44436,
2008-08-18, 03:06:00,VALID,916.66,VALID,0,VALID,100,VALID,-0.0509425,VALID,19.445,VALID,262,VALID,1.02477,
2008-08-18, 03:07:00,VALID,916.65,VALID,0,VALID,100,VALID,-0.0509425,VALID,19.4522,VALID,272,VALID,1.10756,
2008-08-18, 03:08:00,VALID,916.644,VALID,0,VALID,100,VALID,-0.0509425,VALID,19.4383,VALID,268,VALID,1.28351,
2008-08-18, 03:09:00,VALID,916.657,VALID,0,VALID,100,VALID,-0.0679233,VALID,19.442,VALID,260,VALID,0.830669,
2008-08-18, 03:10:00,VALID,916.658,VALID,0,VALID,100,VALID,-0.0509425,VALID,19.4385,VALID,253,VALID,0.157853,
2008-08-18, 03:11:00,VALID,916.641,VALID,0,VALID,100,VALID,-0.0509425,VALID,19.4318,VALID,232,VALID,0.475472,
2008-08-18, 03:12:00,VALID,916.636,VALID,0,VALID,100,VALID,-0.0509425,VALID,19.445,VALID,223,VALID,0,
2008-08-18, 03:13:00,VALID,916.625,VALID,0,VALID,100,VALID,-0.0679233,VALID,19.4385,VALID,235,VALID,0,
2008-08-18, 03:14:00,VALID,916.615,VALID,0,VALID,100,VALID,-0.0849042,VALID,19.4385,VALID,249,VALID,0.76399,
2008-08-18, 03:15:00,VALID,916.61,VALID,0,VALID,100,VALID,-0.0509425,VALID,19.4285,VALID,260,VALID,0.755996,
2008-08-18, 03:16:00,VALID,916.603,VALID,0,VALID,100,VALID,-0.0169808,VALID,19.4131,VALID,260,VALID,0.86684,
2008-08-18, 03:17:00,VALID,916.6,VALID,0,VALID,100,VALID,-0.0169808,VALID,19.3771,VALID,254,VALID,0.636446,
2008-08-18, 03:18:00,VALID,916.604,VALID,0,VALID,100,VALID,-0.0169808,VALID,19.3507,VALID,256,VALID,0.187674,
2008-08-18, 03:19:00,VALID,916.6,VALID,0,VALID,100,VALID,0,VALID,19.338,VALID,247,VALID,0.429506,
2008-08-18, 03:20:00,VALID,916.595,VALID,0,VALID,100,VALID,-0.0169808,VALID,19.325,VALID,271,VALID,0,
2008-08-18, 03:21:00,VALID,916.605,VALID,0,VALID,100,VALID,-0.0509425,VALID,19.3215,VALID,305,VALID,0.0982143,
2008-08-18, 03:22:00,VALID,916.611,VALID,0,VALID,100,VALID,-0.0679233,VALID,19.2955,VALID,353,VALID,0.00272529,
2008-08-18, 03:23:00,VALID,916.613,VALID,0,VALID,100,VALID,-0.0849042,VALID,19.2796,VALID,2,VALID,0,
2008-08-18, 03:24:00,VALID,916.626,VALID,0,VALID,100,VALID,-0.0509425,VALID,19.2828,VALID,357,VALID,0,
2008-08-18, 03:25:00,VALID,916.621,VALID,0,VALID,100,VALID,-0.0339617,VALID,19.2965,VALID,312,VALID,0,
2008-08-18, 03:26:00,VALID,916.64,VALID,0,VALID,100,VALID,-0.0679233,VALID,19.2993,VALID,306,VALID,0,
2008-08-18, 03:27:00,VALID,916.619,VALID,0,VALID,100,VALID,-0.0849042,VALID,19.2998,VALID,296,VALID,0,
2008-08-18, 03:28:00,VALID,916.627,VALID,0,VALID,100,VALID,-0.101885,VALID,19.2933,VALID,296,VALID,0,
2008-08-18, 03:29:00,VALID,916.644,VALID,0,VALID,100,VALID,-0.0679233,VALID,19.2968,VALID,295,VALID,0.182413,
2008-08-18, 03:30:00,VALID,916.651,VALID,0,VALID,100,VALID,-0.0339617,VALID,19.2666,VALID,295,VALID,0,
2008-08-18, 03:31:00,VALID,916.676,VALID,0,VALID,100,VALID,-0.0509425,VALID,19.2569,VALID,5,VALID,0.528525,
2008-08-18, 03:32:00,VALID,916.666,VALID,0,VALID,100,VALID,-0.0509425,VALID,19.1693,VALID,51,VALID,0.682405,
2008-08-18, 03:33:00,VALID,916.645,VALID,0,VALID,100,VALID,-0.0339617,VALID,19.1239,VALID,50,VALID,0.00952744,
2008-08-18, 03:34:00,VALID,916.653,VALID,0,VALID,100,VALID,-0.0169808,VALID,19.1174,VALID,31,VALID,0,
2008-08-18, 03:35:00,VALID,916.662,VALID,0,VALID,100,VALID,-0.0339617,VALID,19.0944,VALID,31,VALID,0,
2008-08-18, 03:36:00,VALID,916.678,VALID,0,VALID,100,VALID,-0.0339617,VALID,19.0814,VALID,31,VALID,0,
2008-08-18, 03:37:00,VALID,916.684,VALID,0,VALID,100,VALID,-0.0169808,VALID,19.0887,VALID,31,VALID,0,
2008-08-18, 03:38:00,VALID,916.694,VALID,0,VALID,100,VALID,-0.0509425,VALID,19.0947,VALID,323,VALID,0.28311,
2008-08-18, 03:39:00,VALID,916.684,VALID,0,VALID,100,VALID,-0.0509425,VALID,19.1373,VALID,280,VALID,0.538889,
2008-08-18, 03:40:00,VALID,916.684,VALID,0,VALID,100,VALID,-0.0849042,VALID,19.16,VALID,280,VALID,0.621094,
2008-08-18, 03:41:00,VALID,916.726,VALID,0,VALID,100,VALID,-0.0339617,VALID,19.1827,VALID,278,VALID,0.604288,
2008-08-18, 03:42:00,VALID,916.747,VALID,0,VALID,100,VALID,-0.0169808,VALID,19.1922,VALID,267,VALID,0.402902,
2008-08-18, 03:43:00,VALID,916.759,VALID,0,VALID,100,VALID,-0.0679233,VALID,19.1955,VALID,272,VALID,0.536519,
2008-08-18, 03:44:00,VALID,916.767,VALID,0,VALID,100,VALID,-0.0679233,VALID,19.1917,VALID,308,VALID,0.0472301,
2008-08-18, 03:45:00,VALID,916.797,VALID,0,VALID,100,VALID,-0.0169808,VALID,19.1887,VALID,307,VALID,0,